RADUGA 1 [-]

Last updated on Jan. 23, 2021, 7:21 a.m. UTC

1 08513U 75123A   21022.86377480 -.00000031  00000-0  00000-0 0  9990
2 08513   7.7796 295.5077 0005030 201.7816   6.9785  1.00295022175046
UTC
Height (km)
Latitude
Longitude
Inclination
Orbital Period
UTC large
Height (km)
Speed (km/s)
/
Latitude / Longitude
Inclination (degrees)
Orbital Period (minutes)
Azimuth
Elevation
Range (km)
Doppler Factor
iOS Compass Heading
iOS Angle

Next 30 passes for location: Hong Kong

Rise time Rise Azimuth (degrees) Set time Set Azimuth (degrees) Duration Max altitude (degrees)

No matching passes for this satellites